User: anonymous
Location: Caltech
(34.1382°N, 118.1253°W)
Time: 04:18:13
(UTC-07:00)
Language:

Cosmos 2251 Rocket - Orbit

View from above orbital plane
View from above orbital plane
View from above satellite
View from above satellite

Ground track
Ground track

The orbit data is extracted from the following two-line orbital elements,

1 22676U 93036B   14205.89786155  .00000072  00000-0  35267-4 0  2769
2 22676 074.0454 317.0004 0019642 245.2235 114.6873 14.33621776103665
Epoch (UTC): 24 July 2014 21:32:55
Eccentricity: 0.0019642
inclination: 74.0454°
perigee height: 765 km
apogee height: 794 km
right ascension of ascending node: 317.0004°
argument of perigee: 245.2235°
revolutions per day: 14.33621776
mean anomaly at epoch: 114.6873°
orbit number at epoch: 10366

The dashed part of the orbit path shows where the satellite is in the earth's shadow,  

DLR